Skip Page Navigation
NASA JPL Caltech
NASA Logo - Jet Propulsion Laboratory + View the NASA Portal
+ Center for Near-Earth Object Studies
JPL Home Earth Solar System Stars & Galaxies Technology
JPL Solar System Dynamics
BODIES ORBITS EPHEMERIDES TOOLS PHYSICAL DATA DISCOVERY FAQ SITE MAP
JPL Small-Body Database Browser
Search: [ help ]  
115807 (2003 UJ238)
Classification: Main-belt Asteroid          SPK-ID: 2115807
Ephemeris | Orbit Diagram | Orbital Elements | Mission Design | Physical Parameters | Discovery Circumstances | Close-Approach Data ]

[ show orbit diagram ]
Orbital Elements at Epoch 2459200.5 (2020-Dec-17.0) TDB
Reference: JPL 13 (heliocentric ecliptic J2000)
 Element Value Uncertainty (1-sigma)   Units 
e .1176268580717352 4.3572e-08  
a 2.632039566247307 1.132e-08 au
q 2.322441021749144 1.1543e-07 au
i 1.411399840356864 4.8603e-06 deg
node 39.84454785679374 0.00014635 deg
peri 359.9204580891512 0.00014766 deg
M 9.901576022158448 1.7024e-05 deg
tp 2459157.601819459269
(2020-Nov-04.10181946)
7.3832e-05 TDB
period 1559.6855450186
4.27
1.0062e-05
2.755e-08
d
yr
n .23081575715681 1.489e-09 deg/d
Q 2.941638110745471 1.2651e-08 au
  Orbit Determination Parameters
   # obs. used (total)      607  
   data-arc span      22056 days (60.39 yr)  
   first obs. used      1960-09-24  
   last obs. used      2021-02-12  
   planetary ephem.      DE441  
   SB-pert. ephem.      SB441-N16  
   condition code      0  
   norm. resid. RMS      .51259  
   source      ORB  
   producer      Otto Matic  
   solution date      2021-Apr-13 16:45:15  

Additional Information
 Earth MOID = 1.32923 au 
 Jupiter MOID = 2.44213 au 
 T_jup = 3.389 
[ show covariance matrix ]

Ephemeris | Orbit Diagram | Orbital Elements | Mission Design | Physical Parameters | Discovery Circumstances | Close-Approach Data ]

Physical Parameter Table
Parameter Symbol Value Units Sigma Reference Notes
absolute magnitude H 16.08   n/a MPCxxxxx  
rotation period rot_per 5.20 h n/a LCDB (Rev. 2020-October); Warner et al., 2009 Result based on less than full coverage, so that the period may be wrong by 30 percent or so.
Published Reference List:
[Chang, C.-K.; Ip, W.-H.; Cheng, Y.-C.; Ngeow, C.-C.; et al. (2014) Astrophys. J. 788, A17.]

115807 (2003 UJ238)          Discovered 2003-Oct-23 by NEAT at Haleakala
Reference: 20051019/Numbers.arcLast Updated: 2005-10-26

[ hide close-approach data ]
Close-Approach Data   ...sorted by Date/Time (TDB)
Date/Time (TDB) Time Uncertainty
(days_HH:MM)
Body Nominal Distance (au) Minimum Distance (au) Maximum Distance (au) V-relative (km/s) V-infinity (km/s) JD (TDB) Time Uncertainty (minutes) Semi-major axis (km) Semi-minor axis (km) range-LOV angle (deg) N-sigma BP Orbit Ref. Reference Modified
2083-Sep-10 10:19 < 00:01 Eunom 0.049274586521445 0.0492697453461724 0.0492794281397017 4.06482965547843 4.06482958539287 2482112.930110421 0.819457022510436 337.407095838727 39.4251527608494 -44.755621890865 132419.648676201 T 13 CATAB v2.0f-lin.ifort 2021-Apr-13 16:45:17 2021-Apr-13 16:45
2133-May-13 19:25 < 00:01 Juno 0.0498043344132008 0.049798306858858 0.0498103632687109 4.85384208049943 4.85384203017334 2500255.309174217 0.521093102877522 504.522656169298 43.2219015774127 -53.7469156938449 139189.47871569 T 13 CATAB v2.0f-lin.ifort 2021-Apr-13 16:45:17 2021-Apr-13 16:45
2197-Jan-14 04:12 00:02 Hebe 0.0432357337708242 0.0432294113888561 0.0432420611517533 4.78953560908582 4.78953557906508 2523511.675327881 1.7555548540911 801.814004043219 34.6324006089029 -66.9736402654761 171831.675232487 T 13 CATAB v2.0f-lin.ifort 2021-Apr-13 16:45:17 2021-Apr-13 16:45

Alternate Designations
 2003 UJ238 = 2838 P-L 
Ephemeris | Orbit Diagram | Orbital Elements | Mission Design | Physical Parameters | Discovery Circumstances | Close-Approach Data ]
ABOUT SSD CREDITS/AWARDS PRIVACY/COPYRIGHT GLOSSARY LINKS
FirstGov 2021-Jun-14 19:07 UT
(server date/time)  
NASA Home Page
Site Manager:   Ryan S. Park
Webmaster  Alan B. Chamberlin